Wind_Speed
17 16 14 13 12 11 10 9 9 8 8 8 8 8 8 8 9 9 10 10 11 11 12 12 13 13 13 13 13 13 14 14 15 15 16 16 17 17 17 18 18 18 18
18 16 15 14 13 12 11 10 9 9 8 8 8 9 9 9 10 10 11 11 11 12 12 12 13 13 13 13 14 14 15 15 15 16 16 17 17 17 18 18 18 18 19
18 17 16 14 13 12 11 10 10 9 9 9 9 9 10 10 10 10 11 11 11 12 12 13 13 13 13 14 14 14 15 15 16 16 17 17 17 17 18 18 18 19 19
18 18 17 15 13 12 12 11 11 10 10 10 10 10 10 10 10 11 11 11 12 12 12 12 13 13 13 14 14 15 15 16 16 17 17 17 17 17 18 18 18 18 19
19 19 17 16 14 13 12 12 12 11 11 10 10 11 11 11 11 11 11 12 12 12 13 13 13 13 13 14 14 15 15 15 16 16 16 17 17 17 17 17 17 18 18
21 20 18 17 16 14 14 13 12 12 11 11 11 11 11 11 12 12 12 12 13 13 13 13 13 13 13 13 13 14 14 15 15 15 16 16 16 16 16 17 17 17 17
23 22 20 19 17 16 15 14 14 13 13 13 12 12 12 13 13 13 13 13 13 13 13 13 13 13 13 13 13 13 14 14 15 15 15 15 15 15 16 16 16 17 17
26 24 22 21 19 18 16 16 15 15 15 14 14 14 14 14 14 14 14 14 14 13 13 13 13 13 13 13 13 13 14 14 14 15 15 14 14 15 15 15 16 16 17
28 26 24 23 21 20 19 18 17 17 16 16 15 15 15 15 15 15 15 14 14 14 14 13 13 13 13 13 13 13 14 14 14 14 14 14 15 15 15 15 16 16 16
30 28 26 25 24 22 21 20 19 19 18 18 17 17 17 17 16 16 16 15 15 15 14 14 14 14 13 13 13 14 14 14 14 14 14 14 15 15 15 16 16 16 16
32 30 29 27 26 25 23 22 21 21 20 19 19 18 18 18 18 17 17 16 16 16 16 15 15 14 14 14 14 15 15 15 15 15 15 15 16 16 16 16 17 17 17
34 33 31 30 29 27 26 25 23 22 21 21 20 20 20 19 19 19 18 18 17 17 17 16 16 16 16 16 16 16 17 17 17 17 17 17 17 17 17 18 18 18 19
37 35 34 33 31 29 28 27 26 25 23 22 22 21 21 21 20 20 20 19 19 19 18 18 18 18 18 18 18 18 18 19 19 19 19 19 19 19 19 20 20 21 21
38 37 36 35 33 31 30 29 28 27 25 24 23 22 22 22 21 21 21 21 21 20 20 20 20 20 20 20 20 20 21 21 22 22 22 22 22 22 22 22 23 23 23
40 39 37 36 35 33 32 31 30 29 27 26 25 24 23 23 23 23 23 23 23 22 22 22 22 22 23 23 23 23 23 23 24 25 25 25 25 26 26 26 26 26 26
41 40 39 37 36 35 34 33 32 30 29 28 26 25 25 24 24 24 24 24 24 24 24 24 24 24 25 25 26 26 26 26 27 28 28 28 28 29 29 29 29 29 29
42 41 40 39 38 37 36 34 33 32 30 29 28 27 27 26 26 26 26 26 26 25 25 26 26 27 27 28 28 29 29 29 30 30 31 31 32 32 32 32 32 32 32
43 42 41 41 39 38 37 36 34 33 32 30 30 29 28 28 28 27 27 27 27 27 27 28 29 30 30 31 32 32 32 32 32 33 33 34 35 35 35 35 35 35 35
44 43 43 42 41 39 39 37 36 34 33 32 32 31 31 30 29 29 29 29 29 29 29 30 31 32 33 34 35 35 35 36 36 36 36 37 37 38 38 38 38 39 39
46 45 44 44 42 41 40 39 37 35 34 34 34 33 32 31 31 31 31 31 31 31 32 33 33 34 35 36 37 37 38 38 38 39 39 40 40 41 41 41 41 42 42
47 46 45 43 43 42 40 39 38 37 36 36 35 34 34 33 33 33 32 32 33 33 34 35 35 36 37 38 39 39 40 40 40 41 42 43 43 43 43 44 44 45 45
48 47 45 44 43 42 41 40 39 38 38 37 36 35 35 35 35 35 34 34 34 35 35 36 38 38 39 40 41 42 42 42 42 44 45 45 45 45 46 46 47 47 47
48 47 46 45 44 43 42 41 40 40 39 38 37 36 36 36 36 36 36 36 37 37 38 39 40 40 41 42 43 44 45 45 45 45 46 47 47 48 48 49 49 50 50
47 47 46 46 45 44 43 42 41 40 39 38 38 38 38 38 38 38 38 38 39 39 40 40 41 42 43 44 45 46 47 47 47 47 46 47 49 50 50 51 51 51 51
48 48 47 47 46 44 43 42 41 41 40 40 40 40 40 40 39 39 39 40 41 41 42 43 43 44 45 46 47 47 47 48 48 48 48 49 50 50 51 52 52 52 52
48 48 48 47 46 45 45 44 43 42 41 41 41 41 41 41 41 41 41 42 43 43 44 45 45 46 47 47 47 48 48 48 48 49 50 51 51 51 52 53 54 54 54
Wind_Direction
221 223 227 230 234 238 241 244 250 256 263 270 278 286 294 300 304 308 311 313 314 315 316 318 319 320 321 321 320 319 318 317 315 313 312 311 310 309 308 307 307 307 307
224 226 228 231 234 237 240 242 247 253 260 267 275 283 289 295 299 303 306 308 310 312 314 316 319 320 320 319 318 317 315 313 312 311 309 308 308 307 307 306 307 307 307
224 227 229 230 233 236 239 243 248 253 259 267 275 281 286 291 295 299 302 305 308 310 312 314 315 316 316 316 315 314 312 311 310 308 307 307 307 307 307 307 307 307 307
226 227 229 230 233 238 243 247 252 255 260 267 273 279 284 287 291 295 299 303 305 308 310 312 312 313 314 314 313 312 310 310 309 309 308 307 308 308 308 308 307 307 307
228 230 231 233 236 241 246 249 254 258 262 267 272 277 281 285 289 293 297 301 303 306 309 309 310 311 312 312 311 310 310 309 309 310 310 310 310 309 308 308 308 309 308
228 231 233 236 238 242 246 251 255 260 263 266 271 275 281 285 289 292 296 298 301 304 306 307 308 309 309 310 310 310 310 310 310 311 311 311 311 310 310 311 312 312 311
229 231 235 237 240 243 246 251 256 260 262 266 271 276 282 286 289 292 294 296 297 299 301 303 305 306 307 307 308 308 310 311 312 313 313 313 313 313 314 314 314 315 315
230 232 235 238 241 243 246 250 255 259 262 266 271 277 282 286 289 291 291 293 293 294 296 298 300 302 304 304 304 306 309 311 312 313 313 314 315 316 316 316 316 317 317
231 233 236 239 242 244 246 250 253 257 261 265 270 276 280 284 288 289 289 290 290 290 291 293 296 298 300 300 301 303 306 308 311 311 312 313 314 316 316 316 316 317 317
232 235 238 240 243 245 248 250 252 255 259 263 268 274 278 282 285 286 287 287 287 287 287 289 291 293 294 296 297 299 302 304 306 307 309 310 311 312 313 313 313 313 313
234 236 239 241 244 246 249 250 252 254 258 262 267 272 275 278 281 283 284 285 285 284 284 284 286 288 289 291 292 295 297 298 300 301 303 305 306 307 308 309 309 309 309
233 236 239 241 244 246 249 251 254 256 258 261 266 270 273 276 279 281 282 282 282 282 281 282 283 284 286 287 289 290 292 293 295 296 297 298 300 300 301 302 303 304 304
232 234 237 240 243 246 249 252 254 257 259 262 264 268 272 274 277 278 279 279 279 279 279 280 280 281 283 284 286 287 288 289 290 291 292 292 293 294 295 297 298 299 299
232 234 237 239 242 246 249 252 255 257 260 263 265 268 270 272 274 276 277 278 278 278 278 278 279 279 281 282 284 285 286 287 287 288 288 289 289 290 291 292 293 294 294
230 233 236 238 241 244 247 251 254 257 260 263 266 268 270 272 273 275 276 277 278 278 278 278 279 279 279 281 282 283 284 285 286 286 286 286 286 287 287 289 290 290 290
229 231 234 237 240 243 246 249 253 256 259 263 266 269 271 272 273 275 276 277 277 278 278 279 279 279 280 281 282 282 283 284 285 285 285 285 285 285 285 286 287 287 287
228 230 233 235 238 241 245 248 252 255 259 262 266 268 270 272 273 275 275 276 277 277 278 278 279 279 280 281 282 282 282 283 284 284 284 284 284 284 284 285 285 286 285
229 230 232 234 236 239 242 246 249 253 257 261 264 267 268 270 272 274 275 276 276 277 278 278 279 279 280 281 281 281 281 282 282 283 283 283 283 283 283 284 284 284 284
230 231 232 234 236 238 241 244 247 251 256 260 263 266 267 269 271 273 274 275 277 278 278 279 279 280 281 281 281 281 282 282 283 283 283 283 283 283 283 283 283 283 283
230 231 233 234 236 239 241 244 247 251 255 258 261 264 267 269 271 272 274 276 277 279 279 280 280 281 281 281 282 283 283 283 284 284 283 283 283 283 283 283 283 282 282
231 232 233 235 238 240 242 245 248 251 254 258 260 264 267 269 270 272 274 276 277 279 280 281 281 282 282 282 283 283 283 284 285 284 283 283 283 283 283 284 283 283 282
231 232 234 237 239 241 244 246 248 251 254 258 261 265 267 268 270 273 275 276 278 280 281 282 282 282 283 283 284 284 285 285 285 284 284 284 284 284 284 284 284 283 283
232 233 235 237 240 243 245 248 250 252 255 259 262 264 266 268 271 273 275 277 278 280 281 282 283 283 284 284 285 285 285 285 284 285 285 285 285 285 285 285 284 284 283
233 234 236 238 240 243 246 249 251 253 256 259 261 263 266 269 271 273 275 277 278 279 281 282 283 284 284 285 285 286 286 286 286 286 286 286 286 286 285 284 284 283 283
235 235 237 238 240 243 246 249 251 254 256 259 261 264 266 269 271 273 275 277 278 280 281 282 283 284 285 286 286 287 287 287 287 288 288 288 287 287 287 286 285 284 282
235 236 238 239 241 243 245 248 251 254 256 259 261 263 266 269 271 273 275 277 278 280 282 283 284 285 286 286 287 287 287 287 288 288 289 289 288 288 287 286 286 285 284
Height
5885 5886 5888 5889 5890 5891 5892 5892 5893 5894 5894 5895 5895 5896 5896 5896 5896 5897 5896 5896 5896 5895 5895 5894 5894 5893 5892 5892 5891 5890 5889 5888 5887 5885 5884 5883 5881 5880 5879 5877 5876 5875 5873
5883 5885 5886 5888 5889 5890 5891 5891 5892 5893 5893 5894 5894 5895 5895 5895 5895 5895 5895 5895 5894 5894 5893 5893 5892 5891 5891 5890 5889 5888 5887 5886 5885 5883 5882 5881 5879 5878 5876 5875 5874 5872 5871
5881 5883 5884 5886 5887 5888 5889 5890 5891 5891 5892 5893 5893 5893 5894 5894 5894 5894 5894 5894 5893 5892 5892 5891 5891 5890 5889 5888 5887 5886 5885 5883 5882 5881 5880 5878 5877 5875 5874 5872 5871 5869 5868
5879 5881 5882 5884 5885 5886 5887 5888 5889 5890 5891 5891 5892 5892 5892 5893 5893 5893 5892 5892 5891 5891 5890 5889 5889 5888 5887 5886 5885 5884 5882 5881 5880 5878 5877 5876 5874 5873 5871 5870 5868 5867 5865
5876 5878 5880 5882 5883 5884 5885 5886 5888 5888 5889 5890 5890 5891 5891 5891 5891 5891 5890 5890 5889 5889 5888 5887 5887 5886 5885 5884 5883 5881 5880 5879 5877 5876 5874 5873 5872 5870 5869 5867 5866 5864 5863
5873 5875 5877 5879 5881 5882 5884 5885 5886 5887 5887 5888 5889 5889 5889 5889 5889 5889 5888 5888 5887 5887 5886 5885 5884 5883 5882 5881 5880 5879 5877 5876 5875 5873 5872 5871 5869 5868 5866 5865 5863 5862 5860
5870 5872 5874 5876 5878 5880 5882 5883 5884 5885 5886 5886 5887 5887 5887 5887 5887 5887 5886 5886 5885 5884 5884 5883 5882 5881 5880 5879 5878 5876 5875 5874 5872 5871 5870 5868 5867 5865 5864 5862 5861 5859 5858
5866 5869 5871 5874 5876 5878 5879 5881 5882 5883 5884 5884 5885 5885 5885 5885 5885 5884 5884 5883 5883 5882 5881 5880 5880 5879 5878 5877 5875 5874 5873 5871 5870 5869 5867 5866 5864 5863 5861 5860 5858 5857 5855
5862 5865 5868 5871 5873 5875 5877 5878 5879 5880 5881 5882 5882 5882 5882 5882 5882 5882 5881 5881 5880 5879 5879 5878 5877 5876 5875 5874 5873 5871 5870 5869 5868 5866 5865 5863 5862 5860 5859 5857 5856 5854 5852
5858 5862 5864 5867 5869 5872 5874 5875 5877 5878 5879 5879 5879 5880 5880 5879 5879 5879 5878 5878 5877 5877 5876 5875 5874 5873 5872 5871 5870 5869 5867 5866 5865 5863 5862 5861 5859 5858 5856 5854 5853 5851 5850
5854 5858 5861 5863 5866 5868 5870 5872 5873 5875 5876 5876 5877 5877 5877 5876 5876 5876 5875 5875 5874 5874 5873 5872 5871 5870 5869 5868 5867 5866 5864 5863 5862 5860 5859 5858 5856 5855 5853 5852 5850 5848 5847
5849 5853 5856 5859 5862 5864 5866 5868 5869 5871 5872 5873 5873 5873 5873 5873 5873 5873 5872 5872 5871 5870 5869 5869 5868 5867 5866 5865 5864 5863 5861 5860 5859 5857 5856 5854 5853 5851 5850 5848 5847 5845 5843
5844 5847 5851 5854 5857 5860 5862 5863 5865 5867 5868 5869 5870 5870 5870 5870 5869 5869 5868 5868 5867 5867 5866 5865 5864 5863 5862 5861 5860 5859 5858 5857 5855 5854 5852 5851 5849 5848 5846 5844 5843 5841 5839
5838 5842 5846 5849 5852 5855 5857 5859 5861 5862 5864 5865 5865 5866 5866 5866 5865 5865 5864 5864 5863 5863 5862 5861 5860 5859 5858 5857 5856 5855 5854 5853 5851 5850 5848 5847 5845 5843 5842 5840 5838 5837 5835
5833 5836 5840 5844 5847 5849 5852 5854 5856 5857 5859 5860 5861 5861 5861 5861 5861 5861 5860 5859 5859 5858 5858 5857 5856 5855 5854 5853 5852 5851 5850 5848 5847 5845 5844 5842 5840 5838 5837 5835 5833 5831 5830
5827 5831 5834 5838 5841 5844 5846 5849 5850 5852 5853 5854 5855 5856 5856 5856 5856 5856 5856 5855 5854 5854 5853 5852 5851 5850 5849 5848 5847 5846 5844 5843 5842 5840 5838 5837 5835 5833 5831 5829 5827 5825 5824
5820 5824 5828 5832 5835 5838 5841 5843 5845 5846 5848 5849 5850 5851 5851 5851 5851 5851 5851 5850 5849 5849 5848 5847 5846 5845 5844 5842 5841 5840 5839 5837 5836 5834 5832 5830 5828 5827 5825 5823 5821 5819 5817
5812 5817 5821 5825 5829 5832 5834 5837 5839 5840 5842 5843 5844 5845 5845 5846 5846 5845 5845 5845 5844 5843 5842 5841 5840 5839 5838 5836 5835 5834 5832 5831 5829 5827 5826 5823 5821 5819 5817 5815 5813 5811 5809
5805 5810 5814 5818 5822 5825 5828 5830 5833 5835 5836 5837 5838 5839 5839 5840 5840 5840 5839 5839 5838 5837 5836 5835 5834 5832 5831 5829 5828 5826 5825 5824 5822 5820 5818 5816 5813 5811 5809 5807 5805 5803 5801
5797 5802 5806 5810 5814 5817 5820 5823 5826 5828 5830 5831 5832 5832 5833 5833 5833 5833 5833 5832 5831 5831 5830 5828 5827 5826 5824 5822 5820 5819 5817 5816 5814 5812 5810 5807 5805 5803 5800 5798 5796 5794 5792
5789 5794 5799 5803 5806 5810 5813 5816 5819 5821 5822 5824 5824 5825 5826 5826 5826 5826 5826 5825 5824 5824 5822 5821 5819 5818 5816 5814 5812 5811 5809 5807 5806 5803 5800 5798 5796 5793 5791 5788 5786 5784 5781
5781 5786 5791 5795 5798 5802 5805 5808 5810 5813 5814 5816 5817 5818 5818 5818 5818 5818 5818 5818 5817 5816 5814 5813 5811 5809 5807 5805 5803 5801 5800 5799 5796 5793 5791 5788 5786 5783 5781 5778 5775 5773 5770
5773 5778 5783 5787 5790 5793 5797 5799 5802 5804 5807 5809 5810 5810 5810 5810 5810 5810 5810 5809 5808 5807 5806 5804 5802 5800 5799 5796 5794 5791 5790 5789 5786 5784 5781 5778 5775 5773 5770 5767 5764 5761 5759
5764 5769 5774 5778 5781 5785 5788 5791 5793 5796 5798 5800 5801 5801 5802 5802 5802 5802 5801 5801 5800 5798 5797 5795 5793 5791 5789 5787 5784 5781 5779 5777 5775 5773 5771 5768 5764 5761 5758 5755 5752 5749 5747
5755 5760 5764 5768 5772 5776 5779 5782 5784 5787 5789 5791 5791 5792 5793 5793 5793 5793 5792 5791 5790 5789 5787 5785 5783 5781 5778 5776 5773 5771 5768 5765 5763 5760 5759 5757 5753 5749 5746 5743 5740 5737 5734
5746 5751 5755 5759 5763 5766 5770 5773 5776 5778 5780 5781 5782 5783 5784 5784 5784 5783 5782 5781 5780 5779 5777 5775 5773 5770 5768 5765 5763 5760 5757 5754 5752 5748 5746 5744 5741 5737 5733 5729 5726 5723 5720